Location: Banska Bystrica
(0.0000°N, 19.1500°E)
Time: 18:17:10
(UTC+01:00)

ATLAS CENTAUR R/B - Pass Details

Date: 19 February 2019
Orbit: 446 x 704 km, 64.7° (Epoch: 13 March)

Event Time Altitude Azimuth Distance (km) Brightness Sun altitude
Rises 18:54:46 0° 314° (NW) 2,936 5.5 -14.1°
Reaches altitude 10° 18:57:35 10° 298° (WNW) 1,982 4.9 -14.8°
Maximum altitude 19:00:56 21° 250° (WSW) 1,357 4.3 -15.6°
Drops below altitude 10° 19:04:07 10° 200° (SSW) 1,865 4.4 -16.4°
Sets 19:06:42 0° 183° (S) 2,709 5.1 -17.0°
